Home   Weather   Leimen   Past weeks

Flag for Germany Past Weather in Leimen, Baden-Württemberg, Germany — Yesterday and Last 2 Weeks

Now
32 °F

Ice fog.


Feels Like: 32 °F
Forecast: 23 / 36 °F
Wind: 2 mph from North

Location: Mannheim City

Current Time: Dec 7, 2016 at 5:39:07 pm

Latest Report: Dec 7, 2016 at 4:50 pm


Visibility: 3 mi

Pressure: 30.57 "Hg

Humidity: 100%

Dew Point: 32 °F

Location of LeimenLocation

Past Weather in Leimen — Graph

°F

Leimen Temperature Yesterday

Maximum temperature yesterday: 30 °F (at 12:50 pm)
Minimum temperature yesterday: 28 °F (at 5:20 am)
Average temperature yesterday: 29 °F

High & Low Weather Summary for the Past Weeks

 TemperatureHumidityPressure
High54 °F (Nov 24, 11:20 am)100% (Nov 22, 7:50 pm)30.60 "Hg (Nov 22, 7:50 pm)
Low18 °F (Dec 4, 8:20 am)45% (Nov 29, 1:20 pm)29.89 "Hg (Nov 22, 4:20 pm)
Average38 °F85%30.28 "Hg
* Reported Nov 22 4:20 pm — Dec 7 4:20 pm, Leimen, Weather by CustomWeather, © 2016

Note: Actual official high and low records may vary slightly from our data, if they occured in-between our weather recording intervals... More about our weather records

Advertising

Leimen Weather History for the Previous 24 Hours

Scroll right to see more
 ConditionsComfort  
Time TempWeatherWind HumidityBarometerVisibility
4:20 pm
Wed, Dec 7
32 °FIce fog.1 mph100%30.57 "Hg3 mi
3:50 pm32 °FIce fog.2 mph100%30.57 "Hg3 mi
3:20 pm32 °FIce fog.2 mph100%30.57 "Hg3 mi
2:50 pm30 °FIce fog.3 mph100%30.57 "Hg3 mi
2:20 pm30 °FIce fog.2 mph100%30.57 "Hg3 mi
1:50 pm30 °FIce fog.3 mph100%30.57 "Hg2 mi
1:20 pm30 °FIce fog.5 mph100%30.57 "Hg2 mi
12:50 pm30 °FIce fog.1 mph100%30.60 "Hg2 mi
12:20 pm30 °FIce fog.1 mph100%30.60 "Hg2 mi
11:50 am30 °FIce fog.2 mph100%30.60 "Hg2 mi
11:20 am30 °FIce fog.2 mph100%30.60 "Hg2 mi
10:50 am30 °FIce fog.5 mph100%30.60 "Hg2 mi
10:20 am30 °FIce fog.3 mph100%30.57 "Hg2 mi
9:50 am30 °FIce fog.2 mph100%30.60 "Hg2 mi
9:20 am30 °FIce fog.2 mph100%30.60 "Hg1 mi
8:50 am30 °FIce fog.3 mph100%30.57 "Hg2 mi
8:20 am30 °FIce fog.5 mph100%30.57 "Hg2 mi
7:50 am30 °FIce fog.3 mph100%30.57 "Hg2 mi
7:20 am30 °FIce fog.3 mph100%30.57 "Hg3 mi
6:50 am28 °FIce fog.3 mph100%30.57 "Hg1 mi
6:20 am28 °FIce fog.3 mph100%30.57 "Hg1 mi
5:50 am30 °FIce fog.1 mph100%30.57 "Hg1 mi
5:20 am28 °FIce fog.2 mph100%30.60 "Hg1 mi
8:50 pm
Tue, Dec 6
30 °FIce fog.3 mph100%30.57 "Hg1 mi
8:20 pm30 °FIce fog.3 mph100%30.54 "Hg1 mi
7:50 pm28 °FIce fog.5 mph100%30.54 "Hg1 mi
6:50 pm30 °FIce fog.5 mph100%30.54 "Hg1 mi
6:20 pm30 °FIce fog.2 mph100%30.54 "Hg1 mi
5:50 pm30 °FIce fog.3 mph100%30.54 "Hg1 mi
5:20 pm30 °FIce fog.3 mph100%30.54 "Hg1 mi
Weather by CustomWeather, © 2016

See weather overviewHow to use our weather pages